Year,Month,Day,Hour,Minute,Value (Times are PST for temperature in C)
2017,08,02,00,00,22.70
2017,08,02,00,01,22.70
2017,08,02,00,02,22.70
2017,08,02,00,03,22.60
2017,08,02,00,04,22.60
2017,08,02,00,05,22.60
2017,08,02,00,06,22.60
2017,08,02,00,07,22.50
2017,08,02,00,08,22.50
2017,08,02,00,09,22.50
2017,08,02,00,10,22.40
2017,08,02,00,11,22.40
2017,08,02,00,12,22.40
2017,08,02,00,13,22.30
2017,08,02,00,14,22.30
2017,08,02,00,15,22.30
2017,08,02,00,16,22.20
2017,08,02,00,17,22.20
2017,08,02,00,18,22.20
2017,08,02,00,19,22.10
2017,08,02,00,20,22.10
2017,08,02,00,21,22.10
2017,08,02,00,22,22.00
2017,08,02,00,23,22.00
2017,08,02,00,24,22.00
2017,08,02,00,25,21.90
2017,08,02,00,26,21.90
2017,08,02,00,27,21.80
2017,08,02,00,28,21.80
2017,08,02,00,29,21.80
2017,08,02,00,30,21.80
2017,08,02,00,31,21.80
2017,08,02,00,32,21.80
2017,08,02,00,33,21.80
2017,08,02,00,34,21.80
2017,08,02,00,35,21.80
2017,08,02,00,36,21.80
2017,08,02,00,37,21.80
2017,08,02,00,38,21.70
2017,08,02,00,39,21.70
2017,08,02,00,40,21.70
2017,08,02,00,41,21.70
2017,08,02,00,42,21.70
2017,08,02,00,43,21.70
2017,08,02,00,44,21.70
2017,08,02,00,45,21.70
2017,08,02,00,46,21.70
2017,08,02,00,47,21.70
2017,08,02,00,48,21.70
2017,08,02,00,49,21.60
2017,08,02,00,50,21.60
2017,08,02,00,51,21.60
2017,08,02,00,52,21.60
2017,08,02,00,53,21.50
2017,08,02,00,54,21.50
2017,08,02,00,55,21.50
2017,08,02,00,56,21.40
2017,08,02,00,57,21.40
2017,08,02,00,58,21.40
2017,08,02,00,59,21.40
2017,08,02,01,00,21.30
2017,08,02,01,01,21.30
2017,08,02,01,02,21.30
2017,08,02,01,03,21.20
2017,08,02,01,04,21.20
2017,08,02,01,05,21.20
2017,08,02,01,06,21.10
2017,08,02,01,07,21.10
2017,08,02,01,08,21.10
2017,08,02,01,09,21.00
2017,08,02,01,10,21.00
2017,08,02,01,11,20.90
2017,08,02,01,12,20.90
2017,08,02,01,13,20.90
2017,08,02,01,14,20.90
2017,08,02,01,15,20.80
2017,08,02,01,16,20.80
2017,08,02,01,17,20.80
2017,08,02,01,18,20.70
2017,08,02,01,19,20.70
2017,08,02,01,20,20.70
2017,08,02,01,21,20.70
2017,08,02,01,22,20.60
2017,08,02,01,23,20.60
2017,08,02,01,24,20.60
2017,08,02,01,25,20.60
2017,08,02,01,26,20.60
2017,08,02,01,27,20.60
2017,08,02,01,28,20.60
2017,08,02,01,29,20.60
2017,08,02,01,30,20.60
2017,08,02,01,31,20.60
2017,08,02,01,32,20.60
2017,08,02,01,33,20.60
2017,08,02,01,34,20.50
2017,08,02,01,35,20.50
2017,08,02,01,36,20.50
2017,08,02,01,37,20.50
2017,08,02,01,38,20.50
2017,08,02,01,39,20.60
2017,08,02,01,40,20.60
2017,08,02,01,41,20.60
2017,08,02,01,42,20.60
2017,08,02,01,43,20.70
2017,08,02,01,44,20.70
2017,08,02,01,45,20.70
2017,08,02,01,46,20.60
2017,08,02,01,47,20.60
2017,08,02,01,48,20.60
2017,08,02,01,49,20.60
2017,08,02,01,50,20.50
2017,08,02,01,51,20.50
2017,08,02,01,52,20.50
2017,08,02,01,53,20.40
2017,08,02,01,54,20.40
2017,08,02,01,55,20.40
2017,08,02,01,56,20.40
2017,08,02,01,57,20.30
2017,08,02,01,58,20.30
2017,08,02,01,59,20.30
2017,08,02,02,00,20.20
2017,08,02,02,01,20.20
2017,08,02,02,02,20.20
2017,08,02,02,03,20.10
2017,08,02,02,04,20.10
2017,08,02,02,05,20.00
2017,08,02,02,06,20.00
2017,08,02,02,07,19.90
2017,08,02,02,08,19.90
2017,08,02,02,09,19.90
2017,08,02,02,10,19.90
2017,08,02,02,11,19.80
2017,08,02,02,12,19.80
2017,08,02,02,13,19.80
2017,08,02,02,14,19.80
2017,08,02,02,15,19.80
2017,08,02,02,16,19.70
2017,08,02,02,17,19.70
2017,08,02,02,18,19.70
2017,08,02,02,19,19.70
2017,08,02,02,20,19.70
2017,08,02,02,21,19.60
2017,08,02,02,22,19.60
2017,08,02,02,23,19.60
2017,08,02,02,24,19.60
2017,08,02,02,25,19.60
2017,08,02,02,26,19.50
2017,08,02,02,27,19.50
2017,08,02,02,28,19.50
2017,08,02,02,29,19.40
2017,08,02,02,30,19.40
2017,08,02,02,31,19.40
2017,08,02,02,32,19.40
2017,08,02,02,33,19.40
2017,08,02,02,34,19.40
2017,08,02,02,35,19.40
2017,08,02,02,36,19.40
2017,08,02,02,37,19.40
2017,08,02,02,38,19.40
2017,08,02,02,39,19.40
2017,08,02,02,40,19.30
2017,08,02,02,41,19.30
2017,08,02,02,42,19.30
2017,08,02,02,43,19.30
2017,08,02,02,44,19.30
2017,08,02,02,45,19.20
2017,08,02,02,46,19.20
2017,08,02,02,47,19.20
2017,08,02,02,48,19.20
2017,08,02,02,49,19.20
2017,08,02,02,50,19.20
2017,08,02,02,51,19.10
2017,08,02,02,52,19.10
2017,08,02,02,53,19.10
2017,08,02,02,54,19.10
2017,08,02,02,55,19.00
2017,08,02,02,56,19.00
2017,08,02,02,57,19.00
2017,08,02,02,58,19.00
2017,08,02,02,59,18.90
2017,08,02,03,00,18.90
2017,08,02,03,01,18.90
2017,08,02,03,02,18.90
2017,08,02,03,03,18.90
2017,08,02,03,04,18.80
2017,08,02,03,05,18.80
2017,08,02,03,06,18.80
2017,08,02,03,07,18.80
2017,08,02,03,08,18.80
2017,08,02,03,09,18.80
2017,08,02,03,10,18.80
2017,08,02,03,11,18.80
2017,08,02,03,12,18.80
2017,08,02,03,13,18.80
2017,08,02,03,14,18.80
2017,08,02,03,15,18.80
2017,08,02,03,16,18.80
2017,08,02,03,17,18.80
2017,08,02,03,18,18.80
2017,08,02,03,19,18.80
2017,08,02,03,20,18.80
2017,08,02,03,21,18.80
2017,08,02,03,22,18.80
2017,08,02,03,23,18.80
2017,08,02,03,24,18.80
2017,08,02,03,25,18.80
2017,08,02,03,26,18.80
2017,08,02,03,27,18.80
2017,08,02,03,28,18.80
2017,08,02,03,29,18.80
2017,08,02,03,30,18.80
2017,08,02,03,31,18.80
2017,08,02,03,32,18.80
2017,08,02,03,33,18.80
2017,08,02,03,34,18.80
2017,08,02,03,35,18.80
2017,08,02,03,36,18.80
2017,08,02,03,37,18.80
2017,08,02,03,38,18.80
2017,08,02,03,39,18.80
2017,08,02,03,40,18.80
2017,08,02,03,41,18.80
2017,08,02,03,42,18.80
2017,08,02,03,43,18.80
2017,08,02,03,44,18.80
2017,08,02,03,45,18.80
2017,08,02,03,46,18.80
2017,08,02,03,47,18.80
2017,08,02,03,48,18.80
2017,08,02,03,49,18.80
2017,08,02,03,50,18.80
2017,08,02,03,51,18.80
2017,08,02,03,52,18.80
2017,08,02,03,53,18.80
2017,08,02,03,54,18.70
2017,08,02,03,55,18.70
2017,08,02,03,56,18.70
2017,08,02,03,57,18.70
2017,08,02,03,58,18.70
2017,08,02,03,59,18.70
2017,08,02,04,00,18.70
2017,08,02,04,01,18.70
2017,08,02,04,02,18.70
2017,08,02,04,03,18.70
2017,08,02,04,04,18.60
2017,08,02,04,05,18.60
2017,08,02,04,06,18.60
2017,08,02,04,07,18.60
2017,08,02,04,08,18.60
2017,08,02,04,09,18.60
2017,08,02,04,10,18.60
2017,08,02,04,11,18.60
2017,08,02,04,12,18.60
2017,08,02,04,13,18.60
2017,08,02,04,14,18.60
2017,08,02,04,15,18.60
2017,08,02,04,16,18.60
2017,08,02,04,17,18.60
2017,08,02,04,18,18.60
2017,08,02,04,19,18.60
2017,08,02,04,20,18.60
2017,08,02,04,21,18.60
2017,08,02,04,22,18.60
2017,08,02,04,23,18.50
2017,08,02,04,24,18.50
2017,08,02,04,25,18.50
2017,08,02,04,26,18.50
2017,08,02,04,27,18.50
2017,08,02,04,28,18.40
2017,08,02,04,29,18.40
2017,08,02,04,30,18.40
2017,08,02,04,31,18.40
2017,08,02,04,32,18.40
2017,08,02,04,33,18.40
2017,08,02,04,34,18.40
2017,08,02,04,35,18.30
2017,08,02,04,36,18.30
2017,08,02,04,37,18.30
2017,08,02,04,38,18.30
2017,08,02,04,39,18.30
2017,08,02,04,40,18.30
2017,08,02,04,41,18.30
2017,08,02,04,42,18.30
2017,08,02,04,43,18.30
2017,08,02,04,44,18.20
2017,08,02,04,45,18.20
2017,08,02,04,46,18.20
2017,08,02,04,47,18.20
2017,08,02,04,48,18.20
2017,08,02,04,49,18.10
2017,08,02,04,50,18.10
2017,08,02,04,51,18.10
2017,08,02,04,52,18.10
2017,08,02,04,53,18.00
2017,08,02,04,54,18.00
2017,08,02,04,55,18.00
2017,08,02,04,56,18.00
2017,08,02,04,57,18.00
2017,08,02,04,58,18.00
2017,08,02,04,59,18.00
2017,08,02,05,00,18.00
2017,08,02,05,01,17.90
2017,08,02,05,02,17.90
2017,08,02,05,03,17.90
2017,08,02,05,04,17.90
2017,08,02,05,05,17.90
2017,08,02,05,06,17.90
2017,08,02,05,07,17.90
2017,08,02,05,08,17.90
2017,08,02,05,09,17.90
2017,08,02,05,10,17.90
2017,08,02,05,11,17.90
2017,08,02,05,12,17.90
2017,08,02,05,13,17.90
2017,08,02,05,14,17.90
2017,08,02,05,15,17.90
2017,08,02,05,16,17.80
2017,08,02,05,17,17.80
2017,08,02,05,18,17.80
2017,08,02,05,19,17.80
2017,08,02,05,20,17.80
2017,08,02,05,21,17.80
2017,08,02,05,22,17.80
2017,08,02,05,23,17.80
2017,08,02,05,24,17.80
2017,08,02,05,25,17.80
2017,08,02,05,26,17.80
2017,08,02,05,27,17.70
2017,08,02,05,28,17.70
2017,08,02,05,29,17.70
2017,08,02,05,30,17.70
2017,08,02,05,31,17.70
2017,08,02,05,32,17.70
2017,08,02,05,33,17.70
2017,08,02,05,34,17.70
2017,08,02,05,35,17.70
2017,08,02,05,36,17.70
2017,08,02,05,37,17.70
2017,08,02,05,38,17.70
2017,08,02,05,39,17.70
2017,08,02,05,40,17.60
2017,08,02,05,41,17.60
2017,08,02,05,42,17.60
2017,08,02,05,43,17.60
2017,08,02,05,44,17.70
2017,08,02,05,45,17.60
2017,08,02,05,46,17.70
2017,08,02,05,47,17.70
2017,08,02,05,48,17.70
2017,08,02,05,49,17.70
2017,08,02,05,50,17.70
2017,08,02,05,51,17.70
2017,08,02,05,52,17.70
2017,08,02,05,53,17.70
2017,08,02,05,54,17.70
2017,08,02,05,55,17.70
2017,08,02,05,56,17.70
2017,08,02,05,57,17.70
2017,08,02,05,58,17.70
2017,08,02,05,59,17.70
2017,08,02,06,00,17.70
2017,08,02,06,01,17.70
2017,08,02,06,02,17.70
2017,08,02,06,03,17.70
2017,08,02,06,04,17.70
2017,08,02,06,05,17.70
2017,08,02,06,06,17.70
2017,08,02,06,07,17.70
2017,08,02,06,08,17.70
2017,08,02,06,09,17.60
2017,08,02,06,10,17.60
2017,08,02,06,11,17.60
2017,08,02,06,12,17.60
2017,08,02,06,13,17.60
2017,08,02,06,14,17.50
2017,08,02,06,15,17.50
2017,08,02,06,16,17.50
2017,08,02,06,17,17.40
2017,08,02,06,18,17.40
2017,08,02,06,19,17.40
2017,08,02,06,20,17.40
2017,08,02,06,21,17.40
2017,08,02,06,22,17.40
2017,08,02,06,23,17.40
2017,08,02,06,24,17.40
2017,08,02,06,25,17.40
2017,08,02,06,26,17.40
2017,08,02,06,27,17.40
2017,08,02,06,28,17.40
2017,08,02,06,29,17.40
2017,08,02,06,30,17.40
2017,08,02,06,31,17.40
2017,08,02,06,32,17.40
2017,08,02,06,33,17.40
2017,08,02,06,34,17.40
2017,08,02,06,35,17.40
2017,08,02,06,36,17.50
2017,08,02,06,37,17.50
2017,08,02,06,38,17.50
2017,08,02,06,39,17.50
2017,08,02,06,40,17.50
2017,08,02,06,41,17.50
2017,08,02,06,42,17.50
2017,08,02,06,43,17.50
2017,08,02,06,44,17.50
2017,08,02,06,45,17.50
2017,08,02,06,46,17.50
2017,08,02,06,47,17.50
2017,08,02,06,48,17.60
2017,08,02,06,49,17.60
2017,08,02,06,50,17.60
2017,08,02,06,51,17.60
2017,08,02,06,52,17.60
2017,08,02,06,53,17.60
2017,08,02,06,54,17.60
2017,08,02,06,55,17.70
2017,08,02,06,56,17.60
2017,08,02,06,57,17.60
2017,08,02,06,58,17.60
2017,08,02,06,59,17.60
2017,08,02,07,00,17.50
2017,08,02,07,01,17.50
2017,08,02,07,02,17.50
2017,08,02,07,03,17.50
2017,08,02,07,04,17.40
2017,08,02,07,05,17.40
2017,08,02,07,06,17.40
2017,08,02,07,07,17.40
2017,08,02,07,08,17.40
2017,08,02,07,09,17.40
2017,08,02,07,10,17.40
2017,08,02,07,11,17.50
2017,08,02,07,12,17.50
2017,08,02,07,13,17.60
2017,08,02,07,14,17.60
2017,08,02,07,15,17.60
2017,08,02,07,16,17.70
2017,08,02,07,17,17.70
2017,08,02,07,18,17.70
2017,08,02,07,19,17.80
2017,08,02,07,20,17.80
2017,08,02,07,21,17.90
2017,08,02,07,22,17.90
2017,08,02,07,23,18.00
2017,08,02,07,24,18.10
2017,08,02,07,25,18.10
2017,08,02,07,26,18.20
2017,08,02,07,27,18.20
2017,08,02,07,28,18.30
2017,08,02,07,29,18.30
2017,08,02,07,30,18.40
2017,08,02,07,31,18.40
2017,08,02,07,32,18.50
2017,08,02,07,33,18.60
2017,08,02,07,34,18.70
2017,08,02,07,35,18.70
2017,08,02,07,36,18.80
2017,08,02,07,37,18.80
2017,08,02,07,38,18.90
2017,08,02,07,39,19.00
2017,08,02,07,40,19.10
2017,08,02,07,41,19.10
2017,08,02,07,42,19.20
2017,08,02,07,43,19.30
2017,08,02,07,44,19.30
2017,08,02,07,45,19.40
2017,08,02,07,46,19.50
2017,08,02,07,47,19.50
2017,08,02,07,48,19.60
2017,08,02,07,49,19.60
2017,08,02,07,50,19.70
2017,08,02,07,51,19.70
2017,08,02,07,52,19.80
2017,08,02,07,53,19.80
2017,08,02,07,54,19.90
2017,08,02,07,55,19.90
2017,08,02,07,56,20.00
2017,08,02,07,57,20.00
2017,08,02,07,58,20.10
2017,08,02,07,59,20.10
2017,08,02,08,00,20.20
2017,08,02,08,01,20.20
2017,08,02,08,02,20.30
2017,08,02,08,03,20.30
2017,08,02,08,04,20.30
2017,08,02,08,05,20.30
2017,08,02,08,06,20.40
2017,08,02,08,07,20.40
2017,08,02,08,08,20.50
2017,08,02,08,09,20.60
2017,08,02,08,10,20.70
2017,08,02,08,11,20.70
2017,08,02,08,12,20.80
2017,08,02,08,13,20.80
2017,08,02,08,14,20.90
2017,08,02,08,15,20.90
2017,08,02,08,16,20.90
2017,08,02,08,17,20.90
2017,08,02,08,18,20.90
2017,08,02,08,19,20.90
2017,08,02,08,20,20.90
2017,08,02,08,21,20.90
2017,08,02,08,22,20.90
2017,08,02,08,23,20.90
2017,08,02,08,24,20.90
2017,08,02,08,25,20.90
2017,08,02,08,26,20.90
2017,08,02,08,27,20.80
2017,08,02,08,28,20.80
2017,08,02,08,29,20.80
2017,08,02,08,30,20.70
2017,08,02,08,31,20.70
2017,08,02,08,32,20.70
2017,08,02,08,33,20.70
2017,08,02,08,34,20.70
2017,08,02,08,35,20.70
2017,08,02,08,36,20.70
2017,08,02,08,37,20.70
2017,08,02,08,38,20.70
2017,08,02,08,39,20.70
2017,08,02,08,40,20.70
2017,08,02,08,41,20.80
2017,08,02,08,42,20.80
2017,08,02,08,43,20.90
2017,08,02,08,44,20.90
2017,08,02,08,45,21.00
2017,08,02,08,46,21.10
2017,08,02,08,47,21.20
2017,08,02,08,48,21.30
2017,08,02,08,49,21.40
2017,08,02,08,50,21.40
2017,08,02,08,51,21.50
2017,08,02,08,52,21.60
2017,08,02,08,53,21.60
2017,08,02,08,54,21.70
2017,08,02,08,55,21.70
2017,08,02,08,56,21.70
2017,08,02,08,57,21.80
2017,08,02,08,58,21.80
2017,08,02,08,59,21.90
2017,08,02,09,00,21.90
2017,08,02,09,01,22.00
2017,08,02,09,02,22.00
2017,08,02,09,03,22.10
2017,08,02,09,04,22.20
2017,08,02,09,05,22.20
2017,08,02,09,06,22.30
2017,08,02,09,07,22.30
2017,08,02,09,08,22.40
2017,08,02,09,09,22.40
2017,08,02,09,10,22.30
2017,08,02,09,11,22.30
2017,08,02,09,12,22.30
2017,08,02,09,13,22.40
2017,08,02,09,14,22.40
2017,08,02,09,15,22.50
2017,08,02,09,16,22.60
2017,08,02,09,17,22.60
2017,08,02,09,18,22.70
2017,08,02,09,19,22.70
2017,08,02,09,20,22.80
2017,08,02,09,21,22.80
2017,08,02,09,22,22.80
2017,08,02,09,23,22.90
2017,08,02,09,24,22.90
2017,08,02,09,25,22.90
2017,08,02,09,26,23.00
2017,08,02,09,27,23.10
2017,08,02,09,28,23.20
2017,08,02,09,29,23.20
2017,08,02,09,30,23.30
2017,08,02,09,31,23.30
2017,08,02,09,32,23.40
2017,08,02,09,33,23.40
2017,08,02,09,34,23.50
2017,08,02,09,35,23.60
2017,08,02,09,36,23.60
2017,08,02,09,37,23.70
2017,08,02,09,38,23.70
2017,08,02,09,39,23.80
2017,08,02,09,40,23.90
2017,08,02,09,41,24.00
2017,08,02,09,42,24.10
2017,08,02,09,43,24.20
2017,08,02,09,44,24.30
2017,08,02,09,45,24.40
2017,08,02,09,46,24.50
2017,08,02,09,47,24.50
2017,08,02,09,48,24.60
2017,08,02,09,49,24.60
2017,08,02,09,50,24.70
2017,08,02,09,51,24.70
2017,08,02,09,52,24.60
2017,08,02,09,53,24.60
2017,08,02,09,54,24.60
2017,08,02,09,55,24.60
2017,08,02,09,56,24.60
2017,08,02,09,57,24.60
2017,08,02,09,58,24.60
2017,08,02,09,59,24.60
2017,08,02,10,00,24.60
2017,08,02,10,01,24.60
2017,08,02,10,02,24.60
2017,08,02,10,03,24.60
2017,08,02,10,04,24.60
2017,08,02,10,05,24.60
2017,08,02,10,06,24.70
2017,08,02,10,07,24.70
2017,08,02,10,08,24.80
2017,08,02,10,09,24.80
2017,08,02,10,10,24.90
2017,08,02,10,11,24.90
2017,08,02,10,12,25.00
2017,08,02,10,13,25.10
2017,08,02,10,14,25.10
2017,08,02,10,15,25.10
2017,08,02,10,16,25.10
2017,08,02,10,17,25.00
2017,08,02,10,18,25.00
2017,08,02,10,19,25.00
2017,08,02,10,20,25.10
2017,08,02,10,21,25.10
2017,08,02,10,22,25.20
2017,08,02,10,23,25.30
2017,08,02,10,24,25.40
2017,08,02,10,25,25.50
2017,08,02,10,26,25.60
2017,08,02,10,27,25.70
2017,08,02,10,28,25.80
2017,08,02,10,29,25.90
2017,08,02,10,30,26.00
2017,08,02,10,31,26.00
2017,08,02,10,32,26.00
2017,08,02,10,33,26.10
2017,08,02,10,34,26.20
2017,08,02,10,35,26.20
2017,08,02,10,36,26.20
2017,08,02,10,37,26.20
2017,08,02,10,38,26.20
2017,08,02,10,39,26.20
2017,08,02,10,40,26.30
2017,08,02,10,41,26.40
2017,08,02,10,42,26.50
2017,08,02,10,43,26.50
2017,08,02,10,44,26.60
2017,08,02,10,45,26.60
2017,08,02,10,46,26.70
2017,08,02,10,47,26.70
2017,08,02,10,48,26.70
2017,08,02,10,49,26.70
2017,08,02,10,50,26.80
2017,08,02,10,51,26.80
2017,08,02,10,52,26.90
2017,08,02,10,53,26.90
2017,08,02,10,54,26.90
2017,08,02,10,55,27.00
2017,08,02,10,56,27.00
2017,08,02,10,57,27.00
2017,08,02,10,58,27.00
2017,08,02,10,59,27.10
2017,08,02,11,00,27.10
2017,08,02,11,01,27.10
2017,08,02,11,02,27.20
2017,08,02,11,03,27.30
2017,08,02,11,04,27.30
2017,08,02,11,05,27.40
2017,08,02,11,06,27.50
2017,08,02,11,07,27.50
2017,08,02,11,08,27.60
2017,08,02,11,09,27.70
2017,08,02,11,10,27.70
2017,08,02,11,11,27.70
2017,08,02,11,12,27.80
2017,08,02,11,13,27.80
2017,08,02,11,14,27.80
2017,08,02,11,15,27.80
2017,08,02,11,16,27.80
2017,08,02,11,17,27.80
2017,08,02,11,18,27.90
2017,08,02,11,19,27.90
2017,08,02,11,20,28.00
2017,08,02,11,21,28.10
2017,08,02,11,22,28.10
2017,08,02,11,23,28.10
2017,08,02,11,24,28.20
2017,08,02,11,25,28.20
2017,08,02,11,26,28.20
2017,08,02,11,27,28.30
2017,08,02,11,28,28.30
2017,08,02,11,29,28.30
2017,08,02,11,30,28.30
2017,08,02,11,31,28.30
2017,08,02,11,32,28.30
2017,08,02,11,33,28.50
2017,08,02,11,34,28.60
2017,08,02,11,35,28.70
2017,08,02,11,36,28.80
2017,08,02,11,37,28.90
2017,08,02,11,38,29.00
2017,08,02,11,39,29.20
2017,08,02,11,40,29.30
2017,08,02,11,41,29.30
2017,08,02,11,42,29.40
2017,08,02,11,43,29.50
2017,08,02,11,44,29.50
2017,08,02,11,45,29.60
2017,08,02,11,46,29.60
2017,08,02,11,47,29.70
2017,08,02,11,48,29.70
2017,08,02,11,49,29.70
2017,08,02,11,50,29.70
2017,08,02,11,51,29.70
2017,08,02,11,52,29.70
2017,08,02,11,53,29.70
2017,08,02,11,54,29.70
2017,08,02,11,55,29.70
2017,08,02,11,56,29.70
2017,08,02,11,57,29.70
2017,08,02,11,58,29.70
2017,08,02,11,59,29.70
2017,08,02,12,00,29.80
2017,08,02,12,01,29.90
2017,08,02,12,02,30.00
2017,08,02,12,03,30.10
2017,08,02,12,04,30.10
2017,08,02,12,05,30.20
2017,08,02,12,06,30.20
2017,08,02,12,07,30.30
2017,08,02,12,08,30.40
2017,08,02,12,09,30.40
2017,08,02,12,10,30.50
2017,08,02,12,11,30.50
2017,08,02,12,12,30.50
2017,08,02,12,13,30.50
2017,08,02,12,14,30.50
2017,08,02,12,15,30.40
2017,08,02,12,16,30.40
2017,08,02,12,17,30.40
2017,08,02,12,18,30.30
2017,08,02,12,19,30.30
2017,08,02,12,20,30.30
2017,08,02,12,21,30.30
2017,08,02,12,22,30.40
2017,08,02,12,23,30.40
2017,08,02,12,24,30.60
2017,08,02,12,25,30.70
2017,08,02,12,26,30.70
2017,08,02,12,27,30.70
2017,08,02,12,28,30.70
2017,08,02,12,29,30.80
2017,08,02,12,30,30.90
2017,08,02,12,31,31.00
2017,08,02,12,32,31.10
2017,08,02,12,33,31.10
2017,08,02,12,34,31.20
2017,08,02,12,35,31.20
2017,08,02,12,36,31.20
2017,08,02,12,37,31.20
2017,08,02,12,38,31.10
2017,08,02,12,39,31.10
2017,08,02,12,40,31.00
2017,08,02,12,41,31.10
2017,08,02,12,42,31.10
2017,08,02,12,43,31.20
2017,08,02,12,44,31.30
2017,08,02,12,45,31.30
2017,08,02,12,46,31.30
2017,08,02,12,47,31.30
2017,08,02,12,48,31.30
2017,08,02,12,49,31.40
2017,08,02,12,50,31.40
2017,08,02,12,51,31.50
2017,08,02,12,52,31.50
2017,08,02,12,53,31.60
2017,08,02,12,54,31.60
2017,08,02,12,55,31.50
2017,08,02,12,56,31.50
2017,08,02,12,57,31.60
2017,08,02,12,58,31.60
2017,08,02,12,59,31.60
2017,08,02,13,00,31.70
2017,08,02,13,01,31.70
2017,08,02,13,02,31.70
2017,08,02,13,03,31.70
2017,08,02,13,04,31.70
2017,08,02,13,05,31.80
2017,08,02,13,06,31.80
2017,08,02,13,07,31.80
2017,08,02,13,08,31.80
2017,08,02,13,09,31.80
2017,08,02,13,10,31.80
2017,08,02,13,11,31.80
2017,08,02,13,12,31.80
2017,08,02,13,13,31.90
2017,08,02,13,14,32.00
2017,08,02,13,15,32.10
2017,08,02,13,16,32.10
2017,08,02,13,17,32.10
2017,08,02,13,18,32.20
2017,08,02,13,19,32.10
2017,08,02,13,20,32.10
2017,08,02,13,21,32.10
2017,08,02,13,22,32.10
2017,08,02,13,23,32.10
2017,08,02,13,24,32.10
2017,08,02,13,25,32.10
2017,08,02,13,26,32.20
2017,08,02,13,27,32.20
2017,08,02,13,28,32.30
2017,08,02,13,29,32.40
2017,08,02,13,30,32.50
2017,08,02,13,31,32.60
2017,08,02,13,32,32.70
2017,08,02,13,33,32.80
2017,08,02,13,34,32.80
2017,08,02,13,35,32.80
2017,08,02,13,36,32.80
2017,08,02,13,37,32.80
2017,08,02,13,38,32.80
2017,08,02,13,39,32.80
2017,08,02,13,40,32.80
2017,08,02,13,41,32.80
2017,08,02,13,42,32.80
2017,08,02,13,43,32.70
2017,08,02,13,44,32.70
2017,08,02,13,45,32.70
2017,08,02,13,46,32.80
2017,08,02,13,47,32.80
2017,08,02,13,48,32.90
2017,08,02,13,49,32.90
2017,08,02,13,50,32.90
2017,08,02,13,51,32.90
2017,08,02,13,52,32.80
2017,08,02,13,53,32.90
2017,08,02,13,54,33.00
2017,08,02,13,55,33.10
2017,08,02,13,56,33.10
2017,08,02,13,57,33.10
2017,08,02,13,58,33.10
2017,08,02,13,59,33.10
2017,08,02,14,00,33.10
2017,08,02,14,01,33.10
2017,08,02,14,02,33.10
2017,08,02,14,03,33.10
2017,08,02,14,04,33.20
2017,08,02,14,05,33.20
2017,08,02,14,06,33.20
2017,08,02,14,07,33.20
2017,08,02,14,08,33.30
2017,08,02,14,09,33.30
2017,08,02,14,10,33.30
2017,08,02,14,11,33.40
2017,08,02,14,12,33.50
2017,08,02,14,13,33.60
2017,08,02,14,14,33.60
2017,08,02,14,15,33.70
2017,08,02,14,16,33.70
2017,08,02,14,17,33.80
2017,08,02,14,18,33.90
2017,08,02,14,19,33.90
2017,08,02,14,20,34.00
2017,08,02,14,21,34.00
2017,08,02,14,22,34.10
2017,08,02,14,23,34.10
2017,08,02,14,24,34.20
2017,08,02,14,25,34.20
2017,08,02,14,26,34.20
2017,08,02,14,27,34.10
2017,08,02,14,28,34.10
2017,08,02,14,29,34.10
2017,08,02,14,30,34.10
2017,08,02,14,31,34.00
2017,08,02,14,32,34.00
2017,08,02,14,33,34.00
2017,08,02,14,34,34.00
2017,08,02,14,35,34.00
2017,08,02,14,36,34.00
2017,08,02,14,37,34.00
2017,08,02,14,38,34.00
2017,08,02,14,39,34.00
2017,08,02,14,40,34.00
2017,08,02,14,41,34.10
2017,08,02,14,42,34.10
2017,08,02,14,43,34.10
2017,08,02,14,44,34.10
2017,08,02,14,45,34.10
2017,08,02,14,46,34.10
2017,08,02,14,47,34.10
2017,08,02,14,48,34.20
2017,08,02,14,49,34.20
2017,08,02,14,50,34.20
2017,08,02,14,51,34.20
2017,08,02,14,52,34.20
2017,08,02,14,53,34.30
2017,08,02,14,54,34.30
2017,08,02,14,55,34.30
2017,08,02,14,56,34.30
2017,08,02,14,57,34.30
2017,08,02,14,58,34.40
2017,08,02,14,59,34.40
2017,08,02,15,00,34.40
2017,08,02,15,01,34.40
2017,08,02,15,02,34.30
2017,08,02,15,03,34.30
2017,08,02,15,04,34.40
2017,08,02,15,05,34.40
2017,08,02,15,06,34.50
2017,08,02,15,07,34.60
2017,08,02,15,08,34.60
2017,08,02,15,09,34.70
2017,08,02,15,10,34.70
2017,08,02,15,11,34.70
2017,08,02,15,12,34.70
2017,08,02,15,13,34.70
2017,08,02,15,14,34.80
2017,08,02,15,15,34.80
2017,08,02,15,16,34.80
2017,08,02,15,17,34.80
2017,08,02,15,18,34.90
2017,08,02,15,19,34.90
2017,08,02,15,20,34.90
2017,08,02,15,21,34.90
2017,08,02,15,22,34.90
2017,08,02,15,23,35.00
2017,08,02,15,24,35.10
2017,08,02,15,25,35.20
2017,08,02,15,26,35.20
2017,08,02,15,27,35.20
2017,08,02,15,28,35.20
2017,08,02,15,29,35.20
2017,08,02,15,30,35.00
2017,08,02,15,31,34.90
2017,08,02,15,32,34.90
2017,08,02,15,33,35.00
2017,08,02,15,34,35.00
2017,08,02,15,35,34.90
2017,08,02,15,36,35.00
2017,08,02,15,37,35.00
2017,08,02,15,38,35.00
2017,08,02,15,39,35.10
2017,08,02,15,40,35.10
2017,08,02,15,41,35.20
2017,08,02,15,42,35.30
2017,08,02,15,43,35.20
2017,08,02,15,44,35.30
2017,08,02,15,45,35.30
2017,08,02,15,46,35.30
2017,08,02,15,47,35.40
2017,08,02,15,48,35.50
2017,08,02,15,49,35.50
2017,08,02,15,50,35.50
2017,08,02,15,51,35.50
2017,08,02,15,52,35.50
2017,08,02,15,53,35.50
2017,08,02,15,54,35.40
2017,08,02,15,55,35.40
2017,08,02,15,56,35.50
2017,08,02,15,57,35.50
2017,08,02,15,58,35.60
2017,08,02,15,59,35.60
2017,08,02,16,00,35.60
2017,08,02,16,01,35.70
2017,08,02,16,02,35.70
2017,08,02,16,03,35.70
2017,08,02,16,04,35.70
2017,08,02,16,05,35.70
2017,08,02,16,06,35.70
2017,08,02,16,07,35.70
2017,08,02,16,08,35.80
2017,08,02,16,09,35.80
2017,08,02,16,10,35.80
2017,08,02,16,11,35.70
2017,08,02,16,12,35.60
2017,08,02,16,13,35.60
2017,08,02,16,14,35.50
2017,08,02,16,15,35.50
2017,08,02,16,16,35.40
2017,08,02,16,17,35.50
2017,08,02,16,18,35.60
2017,08,02,16,19,35.70
2017,08,02,16,20,35.80
2017,08,02,16,21,35.90
2017,08,02,16,22,36.00
2017,08,02,16,23,36.00
2017,08,02,16,24,35.90
2017,08,02,16,25,35.80
2017,08,02,16,26,35.70
2017,08,02,16,27,35.60
2017,08,02,16,28,35.60
2017,08,02,16,29,35.50
2017,08,02,16,30,35.60
2017,08,02,16,31,35.60
2017,08,02,16,32,35.70
2017,08,02,16,33,35.70
2017,08,02,16,34,35.70
2017,08,02,16,35,35.70
2017,08,02,16,36,35.80
2017,08,02,16,37,35.90
2017,08,02,16,38,36.00
2017,08,02,16,39,36.00
2017,08,02,16,40,35.90
2017,08,02,16,41,35.90
2017,08,02,16,42,35.80
2017,08,02,16,43,35.80
2017,08,02,16,44,35.80
2017,08,02,16,45,35.80
2017,08,02,16,46,35.70
2017,08,02,16,47,35.80
2017,08,02,16,48,35.80
2017,08,02,16,49,35.80
2017,08,02,16,50,35.80
2017,08,02,16,51,35.70
2017,08,02,16,52,35.70
2017,08,02,16,53,35.70
2017,08,02,16,54,35.70
2017,08,02,16,55,35.70
2017,08,02,16,56,35.70
2017,08,02,16,57,35.70
2017,08,02,16,58,35.70
2017,08,02,16,59,35.70
2017,08,02,17,00,35.70
2017,08,02,17,01,35.70
2017,08,02,17,02,35.60
2017,08,02,17,03,35.60
2017,08,02,17,04,35.50
2017,08,02,17,05,35.50
2017,08,02,17,06,35.50
2017,08,02,17,07,35.50
2017,08,02,17,08,35.50
2017,08,02,17,09,35.50
2017,08,02,17,10,35.60
2017,08,02,17,11,35.60
2017,08,02,17,12,35.60
2017,08,02,17,13,35.60
2017,08,02,17,14,35.60
2017,08,02,17,15,35.70
2017,08,02,17,16,35.60
2017,08,02,17,17,35.60
2017,08,02,17,18,35.60
2017,08,02,17,19,35.60